星链-36920(STARLINK-36920)

导读

STARLINK-36920(NORAD编号67947)是美国太空探索技术公司(SpaceX)Starlink星链互联网项目中的一颗低轨卫星,采用Starlink V1.0卫星平台。该卫星轨道倾角70.003°,近地点约570公里,远地点约574公里,轨道周期约96分钟,每日绕地球运行近15圈。 星链项目旨在通过大规模低轨卫星组网,为全球尤其是偏远地区提供高速低延迟互联网服务,同时支持军事、航空等领域通信需求。当前SpaceX正推动降低星链卫星轨道高度以提升太空安全,减少太空碎片风险,STARLINK-36920也属于该项目持续运营架构的组成部分。

基本信息
目录编号:
67947
目录名称:
STARLINK-36920
国际标识:
2026-037R
轨道中心:
EARTH
卫星名称:
星链-36920
卫星全名:
星链-36920(STARLINK-36920)
卫星状态:
在轨 (已飞行193 天)
发射日期:
2026-02-24 UTC
国别 :
美国 (US)
星等 :
--
轨道信息
数据来源 国际轨道数据
星历时间: 2026-09-05T10:27:19+0800
12小时前
查看轨道信息
半长轴: 6861.171km
偏心率: 0.0001627
轨道倾角: 43.001°
近地点辐角 272.243°
升交点赤经 257.141°
平近点角 87.824°
近地点: 481.917km
远地点: 484.151km
周期: 94.266分钟
每日圈数: 15.275853
详细信息
固有亮度:
5
最大亮度:
2.5
卫星平台:
Starlink V1.0
覆盖范围:
全球
运营商:
太空探索技术公司
运营商所在国:
美国
制造商(研发单位):
太空探索技术公司
制造商所在国:
美国
使用方式:
暂无
卫星简介
Starlink 计划是 SpaceX 推出的全球卫星互联网项目,通过发射低轨道卫星,为全球尤其是偏远地区提供高速、低延迟的互联网服务。自 2019 年起,Starlink 已部署数千颗卫星,旨在缩小全球数字鸿沟,推动互联网普及。该项目还为军事、航空等行业提供通信支持,带来广泛经济效益。
2D轨道图
3D轨道图
轨道高度分析图
轨道倾角分析图
轨道综合分析图
查看轨道综合分析图
交会数据列表
事件ID 空间交会对象 最接近时刻(TCA) 交会距离 交会风险概率(CRP) 交会风险指数(CRI) 操作
CDM_260907-205505-788206-794721
2026-09-07T
20:55:26+0000
0.235 km
中距离
5.357338E-4 高风险 0.9
CDM_260907-192105-788206-794721
2026-09-07T
19:21:17+0000
1.343 km
极远距离
6.188245E-6 低风险 0.51
CDM_260907-222905-788206-794721
2026-09-07T
22:29:36+0000
1.530 km
极远距离
4.047288E-6 低风险 0.47
CDM_260907-174705-788206-794721
2026-09-07T
17:47:08+0000
2.719 km
极远距离
1.04854E-6 低风险 0.35
CDM_260829-041600-188306-794721
2026-08-29T
04:16:06+0000
1.877 km
极远距离
1.011086E-6 低风险 0.35
CDM_260908-000305-788206-794721
2026-09-08T
00:03:45+0000
2.976 km
极远距离
9.340786E-7 极低风险 0.34